Year,Month,Day,Hour,Minute,Value (Times are PST for temperature in C)
2007,07,11,00,00,28.40
2007,07,11,00,01,28.40
2007,07,11,00,02,28.40
2007,07,11,00,03,28.30
2007,07,11,00,04,28.30
2007,07,11,00,05,28.30
2007,07,11,00,06,28.30
2007,07,11,00,07,28.30
2007,07,11,00,08,28.30
2007,07,11,00,09,28.20
2007,07,11,00,10,28.20
2007,07,11,00,11,28.10
2007,07,11,00,12,28.10
2007,07,11,00,13,28.10
2007,07,11,00,14,28.10
2007,07,11,00,15,28.10
2007,07,11,00,16,28.00
2007,07,11,00,17,28.00
2007,07,11,00,18,28.00
2007,07,11,00,19,27.90
2007,07,11,00,20,27.90
2007,07,11,00,21,27.90
2007,07,11,00,22,27.90
2007,07,11,00,23,27.90
2007,07,11,00,24,27.80
2007,07,11,00,25,27.80
2007,07,11,00,26,27.80
2007,07,11,00,27,27.70
2007,07,11,00,28,27.70
2007,07,11,00,29,27.70
2007,07,11,00,30,27.70
2007,07,11,00,31,27.60
2007,07,11,00,32,27.60
2007,07,11,00,33,27.60
2007,07,11,00,34,27.60
2007,07,11,00,35,27.40
2007,07,11,00,36,27.40
2007,07,11,00,37,27.30
2007,07,11,00,38,27.30
2007,07,11,00,39,27.30
2007,07,11,00,40,27.20
2007,07,11,00,41,27.20
2007,07,11,00,42,27.10
2007,07,11,00,43,27.10
2007,07,11,00,44,27.10
2007,07,11,00,45,27.10
2007,07,11,00,46,27.10
2007,07,11,00,47,27.10
2007,07,11,00,48,27.10
2007,07,11,00,49,27.10
2007,07,11,00,50,27.10
2007,07,11,00,51,26.90
2007,07,11,00,52,26.90
2007,07,11,00,53,26.80
2007,07,11,00,54,26.70
2007,07,11,00,55,26.70
2007,07,11,00,56,26.60
2007,07,11,00,57,26.60
2007,07,11,00,58,26.60
2007,07,11,00,59,26.60
2007,07,11,01,00,26.60
2007,07,11,01,01,26.60
2007,07,11,01,02,26.60
2007,07,11,01,03,26.50
2007,07,11,01,04,26.40
2007,07,11,01,05,26.50
2007,07,11,01,06,26.50
2007,07,11,01,07,26.60
2007,07,11,01,08,26.60
2007,07,11,01,09,26.60
2007,07,11,01,10,26.70
2007,07,11,01,11,26.80
2007,07,11,01,12,26.80
2007,07,11,01,13,26.90
2007,07,11,01,14,26.90
2007,07,11,01,15,26.90
2007,07,11,01,16,26.90
2007,07,11,01,17,26.80
2007,07,11,01,18,26.80
2007,07,11,01,19,26.70
2007,07,11,01,20,26.60
2007,07,11,01,21,26.60
2007,07,11,01,22,26.60
2007,07,11,01,23,26.50
2007,07,11,01,24,26.40
2007,07,11,01,25,26.40
2007,07,11,01,26,26.30
2007,07,11,01,27,26.30
2007,07,11,01,28,26.30
2007,07,11,01,29,26.20
2007,07,11,01,30,26.20
2007,07,11,01,31,26.20
2007,07,11,01,32,26.20
2007,07,11,01,33,26.10
2007,07,11,01,34,26.00
2007,07,11,01,35,26.00
2007,07,11,01,36,25.90
2007,07,11,01,37,25.70
2007,07,11,01,38,25.50
2007,07,11,01,39,25.40
2007,07,11,01,40,25.20
2007,07,11,01,41,25.10
2007,07,11,01,42,25.00
2007,07,11,01,43,25.00
2007,07,11,01,44,25.00
2007,07,11,01,45,25.00
2007,07,11,01,46,24.90
2007,07,11,01,47,24.80
2007,07,11,01,48,24.70
2007,07,11,01,49,24.60
2007,07,11,01,50,24.60
2007,07,11,01,51,24.50
2007,07,11,01,52,24.50
2007,07,11,01,53,24.30
2007,07,11,01,54,24.20
2007,07,11,01,55,24.20
2007,07,11,01,56,24.30
2007,07,11,01,57,24.40
2007,07,11,01,58,24.40
2007,07,11,01,59,24.40
2007,07,11,02,00,24.50
2007,07,11,02,01,24.50
2007,07,11,02,02,24.60
2007,07,11,02,03,24.60
2007,07,11,02,04,24.70
2007,07,11,02,05,24.70
2007,07,11,02,06,24.70
2007,07,11,02,07,24.70
2007,07,11,02,08,24.60
2007,07,11,02,09,24.60
2007,07,11,02,10,24.60
2007,07,11,02,11,24.50
2007,07,11,02,12,24.40
2007,07,11,02,13,24.40
2007,07,11,02,14,24.40
2007,07,11,02,15,24.40
2007,07,11,02,16,24.40
2007,07,11,02,17,24.40
2007,07,11,02,18,24.50
2007,07,11,02,19,24.50
2007,07,11,02,20,24.60
2007,07,11,02,21,24.60
2007,07,11,02,22,24.60
2007,07,11,02,23,24.60
2007,07,11,02,24,24.60
2007,07,11,02,25,24.60
2007,07,11,02,26,24.60
2007,07,11,02,27,24.60
2007,07,11,02,28,24.60
2007,07,11,02,29,24.50
2007,07,11,02,30,24.50
2007,07,11,02,31,24.50
2007,07,11,02,32,24.60
2007,07,11,02,33,24.60
2007,07,11,02,34,24.60
2007,07,11,02,35,24.50
2007,07,11,02,36,24.50
2007,07,11,02,37,24.50
2007,07,11,02,38,24.50
2007,07,11,02,39,24.50
2007,07,11,02,40,24.30
2007,07,11,02,41,24.20
2007,07,11,02,42,24.10
2007,07,11,02,43,24.10
2007,07,11,02,44,24.10
2007,07,11,02,45,24.10
2007,07,11,02,46,24.10
2007,07,11,02,47,24.10
2007,07,11,02,48,24.10
2007,07,11,02,49,24.10
2007,07,11,02,50,24.10
2007,07,11,02,51,23.90
2007,07,11,02,52,23.70
2007,07,11,02,53,23.60
2007,07,11,02,54,23.40
2007,07,11,02,55,23.30
2007,07,11,02,56,23.30
2007,07,11,02,57,23.30
2007,07,11,02,58,23.40
2007,07,11,02,59,23.40
2007,07,11,03,00,23.50
2007,07,11,03,01,23.60
2007,07,11,03,02,23.60
2007,07,11,03,03,23.60
2007,07,11,03,04,23.60
2007,07,11,03,05,23.60
2007,07,11,03,06,23.60
2007,07,11,03,07,23.60
2007,07,11,03,08,23.40
2007,07,11,03,09,23.40
2007,07,11,03,10,23.40
2007,07,11,03,11,23.40
2007,07,11,03,12,23.30
2007,07,11,03,13,23.20
2007,07,11,03,14,23.10
2007,07,11,03,15,22.90
2007,07,11,03,16,22.90
2007,07,11,03,17,22.80
2007,07,11,03,18,22.70
2007,07,11,03,19,22.70
2007,07,11,03,20,22.60
2007,07,11,03,21,22.50
2007,07,11,03,22,22.50
2007,07,11,03,23,22.40
2007,07,11,03,24,22.40
2007,07,11,03,25,22.30
2007,07,11,03,26,22.30
2007,07,11,03,27,22.20
2007,07,11,03,28,22.20
2007,07,11,03,29,22.20
2007,07,11,03,30,22.20
2007,07,11,03,31,22.10
2007,07,11,03,32,22.10
2007,07,11,03,33,22.10
2007,07,11,03,34,22.10
2007,07,11,03,35,22.10
2007,07,11,03,36,22.10
2007,07,11,03,37,22.10
2007,07,11,03,38,22.10
2007,07,11,03,39,22.20
2007,07,11,03,40,22.20
2007,07,11,03,41,22.20
2007,07,11,03,42,22.30
2007,07,11,03,43,22.30
2007,07,11,03,44,22.40
2007,07,11,03,45,22.40
2007,07,11,03,46,22.40
2007,07,11,03,47,22.40
2007,07,11,03,48,22.30
2007,07,11,03,49,22.30
2007,07,11,03,50,22.30
2007,07,11,03,51,22.30
2007,07,11,03,52,22.30
2007,07,11,03,53,22.20
2007,07,11,03,54,22.20
2007,07,11,03,55,22.20
2007,07,11,03,56,22.20
2007,07,11,03,57,22.20
2007,07,11,03,58,22.20
2007,07,11,03,59,22.30
2007,07,11,04,00,22.40
2007,07,11,04,01,22.50
2007,07,11,04,02,22.50
2007,07,11,04,03,22.50
2007,07,11,04,04,22.50
2007,07,11,04,05,22.50
2007,07,11,04,06,22.60
2007,07,11,04,07,22.60
2007,07,11,04,08,22.60
2007,07,11,04,09,22.70
2007,07,11,04,10,22.70
2007,07,11,04,11,22.80
2007,07,11,04,12,22.90
2007,07,11,04,13,22.90
2007,07,11,04,14,22.90
2007,07,11,04,15,22.90
2007,07,11,04,16,22.90
2007,07,11,04,17,22.90
2007,07,11,04,18,23.00
2007,07,11,04,19,23.10
2007,07,11,04,20,23.10
2007,07,11,04,21,23.10
2007,07,11,04,22,23.10
2007,07,11,04,23,23.10
2007,07,11,04,24,23.10
2007,07,11,04,25,23.20
2007,07,11,04,26,23.20
2007,07,11,04,27,23.20
2007,07,11,04,28,23.20
2007,07,11,04,29,23.20
2007,07,11,04,30,23.20
2007,07,11,04,31,23.10
2007,07,11,04,32,23.00
2007,07,11,04,33,22.90
2007,07,11,04,34,22.90
2007,07,11,04,35,22.90
2007,07,11,04,36,22.90
2007,07,11,04,37,22.90
2007,07,11,04,38,22.90
2007,07,11,04,39,22.80
2007,07,11,04,40,22.80
2007,07,11,04,41,22.80
2007,07,11,04,42,22.70
2007,07,11,04,43,22.70
2007,07,11,04,44,22.70
2007,07,11,04,45,22.70
2007,07,11,04,46,22.70
2007,07,11,04,47,22.70
2007,07,11,04,48,22.70
2007,07,11,04,49,22.70
2007,07,11,04,50,22.70
2007,07,11,04,51,22.60
2007,07,11,04,52,22.60
2007,07,11,04,53,22.60
2007,07,11,04,54,22.60
2007,07,11,04,55,22.50
2007,07,11,04,56,22.50
2007,07,11,04,57,22.40
2007,07,11,04,58,22.40
2007,07,11,04,59,22.30
2007,07,11,05,00,22.30
2007,07,11,05,01,22.30
2007,07,11,05,02,22.30
2007,07,11,05,03,22.30
2007,07,11,05,04,22.30
2007,07,11,05,05,22.30
2007,07,11,05,06,22.20
2007,07,11,05,07,22.20
2007,07,11,05,08,22.20
2007,07,11,05,09,22.20
2007,07,11,05,10,22.30
2007,07,11,05,11,22.30
2007,07,11,05,12,22.30
2007,07,11,05,13,22.30
2007,07,11,05,14,22.30
2007,07,11,05,15,22.30
2007,07,11,05,16,22.30
2007,07,11,05,17,22.30
2007,07,11,05,18,22.30
2007,07,11,05,19,22.20
2007,07,11,05,20,22.20
2007,07,11,05,21,22.10
2007,07,11,05,22,22.10
2007,07,11,05,23,22.10
2007,07,11,05,24,22.10
2007,07,11,05,25,22.10
2007,07,11,05,26,22.10
2007,07,11,05,27,22.20
2007,07,11,05,28,22.20
2007,07,11,05,29,22.20
2007,07,11,05,30,22.20
2007,07,11,05,31,22.20
2007,07,11,05,32,22.30
2007,07,11,05,33,22.30
2007,07,11,05,34,22.30
2007,07,11,05,35,22.30
2007,07,11,05,36,22.40
2007,07,11,05,37,22.40
2007,07,11,05,38,22.30
2007,07,11,05,39,22.30
2007,07,11,05,40,22.30
2007,07,11,05,41,22.30
2007,07,11,05,42,22.20
2007,07,11,05,43,22.20
2007,07,11,05,44,22.20
2007,07,11,05,45,22.20
2007,07,11,05,46,22.10
2007,07,11,05,47,22.10
2007,07,11,05,48,22.10
2007,07,11,05,49,22.10
2007,07,11,05,50,22.10
2007,07,11,05,51,22.10
2007,07,11,05,52,22.10
2007,07,11,05,53,22.10
2007,07,11,05,54,22.00
2007,07,11,05,55,22.00
2007,07,11,05,56,22.00
2007,07,11,05,57,22.00
2007,07,11,05,58,22.00
2007,07,11,05,59,22.00
2007,07,11,06,00,21.90
2007,07,11,06,01,21.90
2007,07,11,06,02,21.90
2007,07,11,06,03,21.90
2007,07,11,06,04,21.90
2007,07,11,06,05,21.90
2007,07,11,06,06,21.90
2007,07,11,06,07,21.90
2007,07,11,06,08,21.90
2007,07,11,06,09,21.90
2007,07,11,06,10,21.90
2007,07,11,06,11,21.90
2007,07,11,06,12,21.90
2007,07,11,06,13,21.80
2007,07,11,06,14,21.80
2007,07,11,06,15,21.80
2007,07,11,06,16,21.80
2007,07,11,06,17,21.80
2007,07,11,06,18,21.70
2007,07,11,06,19,21.70
2007,07,11,06,20,21.70
2007,07,11,06,21,21.70
2007,07,11,06,22,21.70
2007,07,11,06,23,21.70
2007,07,11,06,24,21.70
2007,07,11,06,25,21.70
2007,07,11,06,26,21.70
2007,07,11,06,27,21.70
2007,07,11,06,28,21.70
2007,07,11,06,29,21.70
2007,07,11,06,30,21.70
2007,07,11,06,31,21.70
2007,07,11,06,32,21.70
2007,07,11,06,33,21.70
2007,07,11,06,34,21.80
2007,07,11,06,35,21.80
2007,07,11,06,36,21.80
2007,07,11,06,37,21.90
2007,07,11,06,38,21.90
2007,07,11,06,39,22.00
2007,07,11,06,40,22.10
2007,07,11,06,41,22.10
2007,07,11,06,42,22.20
2007,07,11,06,43,22.20
2007,07,11,06,44,22.30
2007,07,11,06,45,22.30
2007,07,11,06,46,22.30
2007,07,11,06,47,22.30
2007,07,11,06,48,22.40
2007,07,11,06,49,22.40
2007,07,11,06,50,22.40
2007,07,11,06,51,22.50
2007,07,11,06,52,22.50
2007,07,11,06,53,22.50
2007,07,11,06,54,22.50
2007,07,11,06,55,22.50
2007,07,11,06,56,22.50
2007,07,11,06,57,22.60
2007,07,11,06,58,22.60
2007,07,11,06,59,22.60
2007,07,11,07,00,22.60
2007,07,11,07,01,22.60
2007,07,11,07,02,22.60
2007,07,11,07,03,22.60
2007,07,11,07,04,22.60
2007,07,11,07,05,22.60
2007,07,11,07,06,22.60
2007,07,11,07,07,22.50
2007,07,11,07,08,22.50
2007,07,11,07,09,22.50
2007,07,11,07,10,22.50
2007,07,11,07,11,22.60
2007,07,11,07,12,22.60
2007,07,11,07,13,22.70
2007,07,11,07,14,22.70
2007,07,11,07,15,22.70
2007,07,11,07,16,22.70
2007,07,11,07,17,22.80
2007,07,11,07,18,22.80
2007,07,11,07,19,22.80
2007,07,11,07,20,22.80
2007,07,11,07,21,22.80
2007,07,11,07,22,22.80
2007,07,11,07,23,22.90
2007,07,11,07,24,22.90
2007,07,11,07,25,22.90
2007,07,11,07,26,22.90
2007,07,11,07,27,22.90
2007,07,11,07,28,22.90
2007,07,11,07,29,22.90
2007,07,11,07,30,22.90
2007,07,11,07,31,23.00
2007,07,11,07,32,23.10
2007,07,11,07,33,23.10
2007,07,11,07,34,23.10
2007,07,11,07,35,23.10
2007,07,11,07,36,23.10
2007,07,11,07,37,23.10
2007,07,11,07,38,23.10
2007,07,11,07,39,23.20
2007,07,11,07,40,23.20
2007,07,11,07,41,23.20
2007,07,11,07,42,23.20
2007,07,11,07,43,23.20
2007,07,11,07,44,23.20
2007,07,11,07,45,23.30
2007,07,11,07,46,23.30
2007,07,11,07,47,23.30
2007,07,11,07,48,23.30
2007,07,11,07,49,23.40
2007,07,11,07,50,23.50
2007,07,11,07,51,23.60
2007,07,11,07,52,23.70
2007,07,11,07,53,23.70
2007,07,11,07,54,23.70
2007,07,11,07,55,23.80
2007,07,11,07,56,23.90
2007,07,11,07,57,23.90
2007,07,11,07,58,24.10
2007,07,11,07,59,24.10
2007,07,11,08,00,24.20
2007,07,11,08,01,24.20
2007,07,11,08,02,24.30
2007,07,11,08,03,24.40
2007,07,11,08,04,24.40
2007,07,11,08,05,24.50
2007,07,11,08,06,24.50
2007,07,11,08,07,24.60
2007,07,11,08,08,24.60
2007,07,11,08,09,24.60
2007,07,11,08,10,24.70
2007,07,11,08,11,24.70
2007,07,11,08,12,24.70
2007,07,11,08,13,24.80
2007,07,11,08,14,24.80
2007,07,11,08,15,24.90
2007,07,11,08,16,24.90
2007,07,11,08,17,25.00
2007,07,11,08,18,25.00
2007,07,11,08,19,25.00
2007,07,11,08,20,25.10
2007,07,11,08,21,25.10
2007,07,11,08,22,25.20
2007,07,11,08,23,25.20
2007,07,11,08,24,25.20
2007,07,11,08,25,25.30
2007,07,11,08,26,25.30
2007,07,11,08,27,25.30
2007,07,11,08,28,25.40
2007,07,11,08,29,25.40
2007,07,11,08,30,25.40
2007,07,11,08,31,25.50
2007,07,11,08,32,25.50
2007,07,11,08,33,25.60
2007,07,11,08,34,25.60
2007,07,11,08,35,25.60
2007,07,11,08,36,25.70
2007,07,11,08,37,25.70
2007,07,11,08,38,25.80
2007,07,11,08,39,25.80
2007,07,11,08,40,25.80
2007,07,11,08,41,25.90
2007,07,11,08,42,25.90
2007,07,11,08,43,25.90
2007,07,11,08,44,26.00
2007,07,11,08,45,26.00
2007,07,11,08,46,26.10
2007,07,11,08,47,26.10
2007,07,11,08,48,26.10
2007,07,11,08,49,26.20
2007,07,11,08,50,26.20
2007,07,11,08,51,26.30
2007,07,11,08,52,26.30
2007,07,11,08,53,26.40
2007,07,11,08,54,26.50
2007,07,11,08,55,26.60
2007,07,11,08,56,26.60
2007,07,11,08,57,26.60
2007,07,11,08,58,26.70
2007,07,11,08,59,26.70
2007,07,11,09,00,26.70
2007,07,11,09,01,26.80
2007,07,11,09,02,26.90
2007,07,11,09,03,27.00
2007,07,11,09,04,27.10
2007,07,11,09,05,27.10
2007,07,11,09,06,27.10
2007,07,11,09,07,27.10
2007,07,11,09,08,27.10
2007,07,11,09,09,27.10
2007,07,11,09,10,27.10
2007,07,11,09,11,27.10
2007,07,11,09,12,27.20
2007,07,11,09,13,27.20
2007,07,11,09,14,27.20
2007,07,11,09,15,27.30
2007,07,11,09,16,27.30
2007,07,11,09,17,27.30
2007,07,11,09,18,27.30
2007,07,11,09,19,27.30
2007,07,11,09,20,27.40
2007,07,11,09,21,27.40
2007,07,11,09,22,27.40
2007,07,11,09,23,27.50
2007,07,11,09,24,27.60
2007,07,11,09,25,27.60
2007,07,11,09,26,27.70
2007,07,11,09,27,27.70
2007,07,11,09,28,27.80
2007,07,11,09,29,27.80
2007,07,11,09,30,27.90
2007,07,11,09,31,27.90
2007,07,11,09,32,27.90
2007,07,11,09,33,27.90
2007,07,11,09,34,28.00
2007,07,11,09,35,28.00
2007,07,11,09,36,28.10
2007,07,11,09,37,28.10
2007,07,11,09,38,28.10
2007,07,11,09,39,28.10
2007,07,11,09,40,28.20
2007,07,11,09,41,28.20
2007,07,11,09,42,28.20
2007,07,11,09,43,28.20
2007,07,11,09,44,28.20
2007,07,11,09,45,28.20
2007,07,11,09,46,28.30
2007,07,11,09,47,28.30
2007,07,11,09,48,28.30
2007,07,11,09,49,28.40
2007,07,11,09,50,28.40
2007,07,11,09,51,28.40
2007,07,11,09,52,28.60
2007,07,11,09,53,28.60
2007,07,11,09,54,28.70
2007,07,11,09,55,28.70
2007,07,11,09,56,28.70
2007,07,11,09,57,28.70
2007,07,11,09,58,28.80
2007,07,11,09,59,28.80
2007,07,11,10,00,28.90
2007,07,11,10,01,28.90
2007,07,11,10,02,28.90
2007,07,11,10,03,28.90
2007,07,11,10,04,28.90
2007,07,11,10,05,29.00
2007,07,11,10,06,29.10
2007,07,11,10,07,29.20
2007,07,11,10,08,29.20
2007,07,11,10,09,29.20
2007,07,11,10,10,29.30
2007,07,11,10,11,29.30
2007,07,11,10,12,29.30
2007,07,11,10,13,29.30
2007,07,11,10,14,29.30
2007,07,11,10,15,29.30
2007,07,11,10,16,29.30
2007,07,11,10,17,29.30
2007,07,11,10,18,29.30
2007,07,11,10,19,29.30
2007,07,11,10,20,29.30
2007,07,11,10,21,29.40
2007,07,11,10,22,29.40
2007,07,11,10,23,29.40
2007,07,11,10,24,29.40
2007,07,11,10,25,29.50
2007,07,11,10,26,29.50
2007,07,11,10,27,29.60
2007,07,11,10,28,29.60
2007,07,11,10,29,29.60
2007,07,11,10,30,29.70
2007,07,11,10,31,29.70
2007,07,11,10,32,29.70
2007,07,11,10,33,29.80
2007,07,11,10,34,29.80
2007,07,11,10,35,29.70
2007,07,11,10,36,29.70
2007,07,11,10,37,29.70
2007,07,11,10,38,29.70
2007,07,11,10,39,29.70
2007,07,11,10,40,29.70
2007,07,11,10,41,29.80
2007,07,11,10,42,29.80
2007,07,11,10,43,29.90
2007,07,11,10,44,30.00
2007,07,11,10,45,30.10
2007,07,11,10,46,30.10
2007,07,11,10,47,30.20
2007,07,11,10,48,30.30
2007,07,11,10,49,30.30
2007,07,11,10,50,30.30
2007,07,11,10,51,30.40
2007,07,11,10,52,30.50
2007,07,11,10,53,30.60
2007,07,11,10,54,30.70
2007,07,11,10,55,30.70
2007,07,11,10,56,30.70
2007,07,11,10,57,30.80
2007,07,11,10,58,30.80
2007,07,11,10,59,30.90
2007,07,11,11,00,30.90
2007,07,11,11,01,30.90
2007,07,11,11,02,30.90
2007,07,11,11,03,30.90
2007,07,11,11,04,30.90
2007,07,11,11,05,30.90
2007,07,11,11,06,30.90
2007,07,11,11,07,30.90
2007,07,11,11,08,30.90
2007,07,11,11,09,31.00
2007,07,11,11,10,31.00
2007,07,11,11,11,31.00
2007,07,11,11,12,31.00
2007,07,11,11,13,31.10
2007,07,11,11,14,31.10
2007,07,11,11,15,31.10
2007,07,11,11,16,31.20
2007,07,11,11,17,31.30
2007,07,11,11,18,31.30
2007,07,11,11,19,31.40
2007,07,11,11,20,31.40
2007,07,11,11,21,31.60
2007,07,11,11,22,31.70
2007,07,11,11,23,31.70
2007,07,11,11,24,31.80
2007,07,11,11,25,31.90
2007,07,11,11,26,31.90
2007,07,11,11,27,31.90
2007,07,11,11,28,31.90
2007,07,11,11,29,31.90
2007,07,11,11,30,32.00
2007,07,11,11,31,32.10
2007,07,11,11,32,32.10
2007,07,11,11,33,32.10
2007,07,11,11,34,32.10
2007,07,11,11,35,32.10
2007,07,11,11,36,32.20
2007,07,11,11,37,32.20
2007,07,11,11,38,32.30
2007,07,11,11,39,32.30
2007,07,11,11,40,32.40
2007,07,11,11,41,32.40
2007,07,11,11,42,32.50
2007,07,11,11,43,32.50
2007,07,11,11,44,32.50
2007,07,11,11,45,32.60
2007,07,11,11,46,32.60
2007,07,11,11,47,32.70
2007,07,11,11,48,32.60
2007,07,11,11,49,32.60
2007,07,11,11,50,32.60
2007,07,11,11,51,32.60
2007,07,11,11,52,32.60
2007,07,11,11,53,32.60
2007,07,11,11,54,32.60
2007,07,11,11,55,32.70
2007,07,11,11,56,32.80
2007,07,11,11,57,32.80
2007,07,11,11,58,32.60
2007,07,11,11,59,32.60
2007,07,11,12,00,32.60
2007,07,11,12,01,32.60
2007,07,11,12,02,32.60
2007,07,11,12,03,32.60
2007,07,11,12,04,32.60
2007,07,11,12,05,32.60
2007,07,11,12,06,32.70
2007,07,11,12,07,32.80
2007,07,11,12,08,32.90
2007,07,11,12,09,33.00
2007,07,11,12,10,33.00
2007,07,11,12,11,33.00
2007,07,11,12,12,33.00
2007,07,11,12,13,33.00
2007,07,11,12,14,33.10
2007,07,11,12,15,33.10
2007,07,11,12,16,33.10
2007,07,11,12,17,33.10
2007,07,11,12,18,33.10
2007,07,11,12,19,33.10
2007,07,11,12,20,33.20
2007,07,11,12,21,33.20
2007,07,11,12,22,33.20
2007,07,11,12,23,33.20
2007,07,11,12,24,33.20
2007,07,11,12,25,33.20
2007,07,11,12,26,33.20
2007,07,11,12,27,33.10
2007,07,11,12,28,33.10
2007,07,11,12,29,33.20
2007,07,11,12,30,33.20
2007,07,11,12,31,33.20
2007,07,11,12,32,33.20
2007,07,11,12,33,33.10
2007,07,11,12,34,33.10
2007,07,11,12,35,33.00
2007,07,11,12,36,33.00
2007,07,11,12,37,33.00
2007,07,11,12,38,33.00
2007,07,11,12,39,33.00
2007,07,11,12,40,33.00
2007,07,11,12,41,33.10
2007,07,11,12,42,33.10
2007,07,11,12,43,33.10
2007,07,11,12,44,33.20
2007,07,11,12,45,33.30
2007,07,11,12,46,33.40
2007,07,11,12,47,33.50
2007,07,11,12,48,33.50
2007,07,11,12,49,33.50
2007,07,11,12,50,33.50
2007,07,11,12,51,33.50
2007,07,11,12,52,33.50
2007,07,11,12,53,33.50
2007,07,11,12,54,33.40
2007,07,11,12,55,33.40
2007,07,11,12,56,33.40
2007,07,11,12,57,33.50
2007,07,11,12,58,33.50
2007,07,11,12,59,33.50
2007,07,11,13,00,33.50
2007,07,11,13,01,33.60
2007,07,11,13,02,33.60
2007,07,11,13,03,33.70
2007,07,11,13,04,33.80
2007,07,11,13,05,33.80
2007,07,11,13,06,33.80
2007,07,11,13,07,33.90
2007,07,11,13,08,34.00
2007,07,11,13,09,34.00
2007,07,11,13,10,34.10
2007,07,11,13,11,34.10
2007,07,11,13,12,34.10
2007,07,11,13,13,34.20
2007,07,11,13,14,34.20
2007,07,11,13,15,34.20
2007,07,11,13,16,34.20
2007,07,11,13,17,34.20
2007,07,11,13,18,34.20
2007,07,11,13,19,34.20
2007,07,11,13,20,34.20
2007,07,11,13,21,34.20
2007,07,11,13,22,34.20
2007,07,11,13,23,34.20
2007,07,11,13,24,34.20
2007,07,11,13,25,34.20
2007,07,11,13,26,34.20
2007,07,11,13,27,34.30
2007,07,11,13,28,34.20
2007,07,11,13,29,34.10
2007,07,11,13,30,34.10
2007,07,11,13,31,34.10
2007,07,11,13,32,34.00
2007,07,11,13,33,34.00
2007,07,11,13,34,34.10
2007,07,11,13,35,34.10
2007,07,11,13,36,34.20
2007,07,11,13,37,34.30
2007,07,11,13,38,34.40
2007,07,11,13,39,34.40
2007,07,11,13,40,34.50
2007,07,11,13,41,34.60
2007,07,11,13,42,34.60
2007,07,11,13,43,34.60
2007,07,11,13,44,34.60
2007,07,11,13,45,34.60
2007,07,11,13,46,34.60
2007,07,11,13,47,34.50
2007,07,11,13,48,34.60
2007,07,11,13,49,34.60
2007,07,11,13,50,34.70
2007,07,11,13,51,34.70
2007,07,11,13,52,34.70
2007,07,11,13,53,34.60
2007,07,11,13,54,34.60
2007,07,11,13,55,34.50
2007,07,11,13,56,34.40
2007,07,11,13,57,34.30
2007,07,11,13,58,34.30
2007,07,11,13,59,34.30
2007,07,11,14,00,34.30
2007,07,11,14,01,34.30
2007,07,11,14,02,34.40
2007,07,11,14,03,34.40
2007,07,11,14,04,34.40
2007,07,11,14,05,34.40
2007,07,11,14,06,34.60
2007,07,11,14,07,34.60
2007,07,11,14,08,34.60
2007,07,11,14,09,34.60
2007,07,11,14,10,34.70
2007,07,11,14,11,34.70
2007,07,11,14,12,34.80
2007,07,11,14,13,34.90
2007,07,11,14,14,35.10
2007,07,11,14,15,35.10
2007,07,11,14,16,35.20
2007,07,11,14,17,35.10
2007,07,11,14,18,35.10
2007,07,11,14,19,34.90
2007,07,11,14,20,34.90
2007,07,11,14,21,34.80
2007,07,11,14,22,34.70
2007,07,11,14,23,34.70
2007,07,11,14,24,34.70
2007,07,11,14,25,34.80
2007,07,11,14,26,34.80
2007,07,11,14,27,34.90
2007,07,11,14,28,35.10
2007,07,11,14,29,35.20
2007,07,11,14,30,35.20
2007,07,11,14,31,35.30
2007,07,11,14,32,35.30
2007,07,11,14,33,35.30
2007,07,11,14,34,35.40
2007,07,11,14,35,35.50
2007,07,11,14,36,35.40
2007,07,11,14,37,35.30
2007,07,11,14,38,35.30
2007,07,11,14,39,35.30
2007,07,11,14,40,35.50
2007,07,11,14,41,35.60
2007,07,11,14,42,35.60
2007,07,11,14,43,35.60
2007,07,11,14,44,35.60
2007,07,11,14,45,35.70
2007,07,11,14,46,35.70
2007,07,11,14,47,35.70
2007,07,11,14,48,35.60
2007,07,11,14,49,35.60
2007,07,11,14,50,35.50
2007,07,11,14,51,35.50
2007,07,11,14,52,35.40
2007,07,11,14,53,35.30
2007,07,11,14,54,35.30
2007,07,11,14,55,35.30
2007,07,11,14,56,35.40
2007,07,11,14,57,35.50
2007,07,11,14,58,35.50
2007,07,11,14,59,35.50
2007,07,11,15,00,35.50
2007,07,11,15,01,35.50
2007,07,11,15,02,35.50
2007,07,11,15,03,35.30
2007,07,11,15,04,35.30
2007,07,11,15,05,35.20
2007,07,11,15,06,35.30
2007,07,11,15,07,35.40
2007,07,11,15,08,35.50
2007,07,11,15,09,35.60
2007,07,11,15,10,35.60
2007,07,11,15,11,35.70
2007,07,11,15,12,35.90
2007,07,11,15,13,35.90
2007,07,11,15,14,36.00
2007,07,11,15,15,36.00
2007,07,11,15,16,36.00
2007,07,11,15,17,35.90
2007,07,11,15,18,35.90
2007,07,11,15,19,35.80
2007,07,11,15,20,35.70
2007,07,11,15,21,35.70
2007,07,11,15,22,35.70
2007,07,11,15,23,35.60
2007,07,11,15,24,35.50
2007,07,11,15,25,35.40
2007,07,11,15,26,35.30
2007,07,11,15,27,35.30
2007,07,11,15,28,35.20
2007,07,11,15,29,35.20
2007,07,11,15,30,35.10
2007,07,11,15,31,35.10
2007,07,11,15,32,35.20
2007,07,11,15,33,35.30
2007,07,11,15,34,35.30
2007,07,11,15,35,35.40
2007,07,11,15,36,35.50
2007,07,11,15,37,35.60
2007,07,11,15,38,35.70
2007,07,11,15,39,35.80
2007,07,11,15,40,35.90
2007,07,11,15,41,36.00
2007,07,11,15,42,36.00
2007,07,11,15,43,36.00
2007,07,11,15,44,36.00
2007,07,11,15,45,35.90
2007,07,11,15,46,35.80
2007,07,11,15,47,35.70
2007,07,11,15,48,35.70
2007,07,11,15,49,35.60
2007,07,11,15,50,35.60
2007,07,11,15,51,35.70
2007,07,11,15,52,35.70
2007,07,11,15,53,35.80
2007,07,11,15,54,35.90
2007,07,11,15,55,35.80
2007,07,11,15,56,35.90
2007,07,11,15,57,35.90
2007,07,11,15,58,36.00
2007,07,11,15,59,36.00
2007,07,11,16,00,36.10
2007,07,11,16,01,36.20
2007,07,11,16,02,36.20
2007,07,11,16,03,36.20
2007,07,11,16,04,36.20
2007,07,11,16,05,36.20
2007,07,11,16,06,36.30
2007,07,11,16,07,36.30
2007,07,11,16,08,36.40
2007,07,11,16,09,36.40
2007,07,11,16,10,36.40
2007,07,11,16,11,36.30
2007,07,11,16,12,36.30
2007,07,11,16,13,36.30
2007,07,11,16,14,36.20
2007,07,11,16,15,36.10
2007,07,11,16,16,35.90
2007,07,11,16,17,35.90
2007,07,11,16,18,35.90
2007,07,11,16,19,35.90
2007,07,11,16,20,35.90
2007,07,11,16,21,35.80
2007,07,11,16,22,35.70
2007,07,11,16,23,35.60
2007,07,11,16,24,35.60
2007,07,11,16,25,35.60
2007,07,11,16,26,35.60
2007,07,11,16,27,35.60
2007,07,11,16,28,35.60
2007,07,11,16,29,35.60
2007,07,11,16,30,35.60
2007,07,11,16,31,35.70
2007,07,11,16,32,35.70
2007,07,11,16,33,35.70
2007,07,11,16,34,35.70
2007,07,11,16,35,35.70
2007,07,11,16,36,35.90
2007,07,11,16,37,36.00
2007,07,11,16,38,36.00
2007,07,11,16,39,36.20
2007,07,11,16,40,36.20
2007,07,11,16,41,36.30
2007,07,11,16,42,36.20
2007,07,11,16,43,36.20
2007,07,11,16,44,36.30
2007,07,11,16,45,36.30
2007,07,11,16,46,36.20
2007,07,11,16,47,36.20
2007,07,11,16,48,36.30
2007,07,11,16,49,36.20
2007,07,11,16,50,36.20
2007,07,11,16,51,36.00
2007,07,11,16,52,36.00
2007,07,11,16,53,35.90
2007,07,11,16,54,35.90
2007,07,11,16,55,36.00
2007,07,11,16,56,36.10
2007,07,11,16,57,36.20
2007,07,11,16,58,36.20
2007,07,11,16,59,36.20
2007,07,11,17,00,36.20
2007,07,11,17,01,36.20
2007,07,11,17,02,36.20
2007,07,11,17,03,36.20
2007,07,11,17,04,36.20
2007,07,11,17,05,36.20
2007,07,11,17,06,36.20
2007,07,11,17,07,36.30
2007,07,11,17,08,36.30
2007,07,11,17,09,36.30
2007,07,11,17,10,36.30
2007,07,11,17,11,36.30
2007,07,11,17,12,36.20
2007,07,11,17,13,36.20
2007,07,11,17,14,36.20
2007,07,11,17,15,36.20
2007,07,11,17,16,36.20
2007,07,11,17,17,36.20
2007,07,11,17,18,36.20
2007,07,11,17,19,36.20